| time (UTC) | temp F | wind direction | speed knots | gust knots | rain 1hr in | rain 24hr in | rain mn in | humidity % | barometer mb |
| 20260505101515 | 51 | 167 | 0.0 | 0.9 | 0.00 | 0.00 | 0.00 | 77 | 1014.2 |
| 20260505100012 | 51 | 167 | 0.0 | 0.0 | 0.00 | 0.00 | 0.00 | 77 | 1014.1 |
| 20260505094511 | 51 | 167 | 0.0 | 0.9 | 0.00 | 0.00 | 0.00 | 77 | 1014.0 |
| 20260505093010 | 51 | 167 | 0.0 | 0.0 | 0.00 | 0.00 | 0.00 | 78 | 1014.0 |
| 20260505091506 | 52 | 53 | 0.0 | 1.7 | 0.00 | 0.00 | 0.00 | 79 | 1013.7 |
| 20260505090004 | 52 | 53 | 0.0 | 0.0 | 0.00 | 0.00 | 0.00 | 80 | 1013.6 |
| 20260505084501 | 52 | 53 | 0.0 | 0.0 | 0.00 | 0.00 | 0.00 | 80 | 1013.5 |
| 20260505083117 | 53 | 53 | 0.0 | 0.9 | 0.00 | 0.00 | 0.00 | 81 | 1013.4 |
| 20260505081558 | 54 | 105 | 0.0 | 1.7 | 0.00 | 0.00 | 0.00 | 81 | 1013.4 |
| 20260505080054 | 54 | 79 | 0.9 | 3.5 | 0.00 | 0.00 | 0.00 | 80 | 1013.3 |
| 20260505074553 | 54 | 70 | 0.9 | 4.3 | 0.00 | 0.00 | 0.00 | 79 | 1013.2 |
| 20260505073053 | 54 | 178 | 0.9 | 2.6 | 0.00 | 0.00 | 0.00 | 79 | 1013.0 |
| 20260505071546 | 55 | 69 | 0.0 | 0.0 | 0.00 | 0.00 | 0.00 | 80 | 1012.8 |
| 20260505070050 | 55 | 69 | 0.0 | 0.9 | 0.00 | 0.00 | 0.00 | 80 | 1012.5 |
| 20260505064556 | 55 | 69 | 0.9 | 2.6 | 0.00 | 0.00 | 0.00 | 79 | 1012.4 |
| 20260505063050 | 56 | 34 | 0.0 | 1.7 | 0.00 | 0.00 | 0.00 | 80 | 1012.2 |
| 20260505061544 | 57 | 34 | 0.0 | 1.7 | 0.00 | 0.00 | 0.00 | 80 | 1011.9 |
| 20260505060042 | 57 | 34 | 0.0 | 0.9 | 0.00 | 0.00 | 0.00 | 81 | 1011.8 |
| 20260505054548 | 58 | 34 | 0.0 | 1.7 | 0.00 | 0.00 | 0.00 | 81 | 1011.7 |
| 20260505053041 | 58 | 34 | 0.0 | 2.6 | 0.00 | 0.00 | 0.00 | 81 | 1011.8 |
| 20260505051541 | 59 | 34 | 0.0 | 1.7 | 0.00 | 0.00 | 0.00 | 81 | 1011.6 |
| 20260505041546 | 63 | 325 | 0.0 | 1.7 | 0.00 | 0.00 | 0.00 | 79 | 1010.9 |
| 20260505040038 | 64 | 325 | 0.0 | 2.6 | 0.00 | 0.00 | 0.00 | 78 | 1010.6 |
| 20260505034542 | 65 | 33 | 0.0 | 1.7 | 0.00 | 0.00 | 0.00 | 79 | 1010.4 |
| 20260505033038 | 66 | 34 | 0.0 | 1.7 | 0.00 | 0.00 | 0.00 | 78 | 1010.2 |
| 20260505031537 | 68 | 260 | 0.0 | 0.9 | 0.00 | 0.00 | 0.00 | 75 | 1010.0 |
| 20260505030036 | 70 | 260 | 0.0 | 0.9 | 0.00 | 0.00 | 0.00 | 71 | 1009.9 |
| 20260505024543 | 71 | 234 | 0.0 | 0.9 | 0.00 | 0.00 | 0.00 | 70 | 1009.8 |
| 20260505023044 | 72 | 234 | 0.0 | 2.6 | 0.00 | 0.00 | 0.00 | 69 | 1009.7 |
| 20260505021540 | 72 | 209 | 2.6 | 4.3 | 0.00 | 0.00 | 0.00 | 68 | 1009.6 |
| 20260505020034 | 73 | 259 | 0.9 | 4.3 | 0.00 | 0.00 | 0.00 | 67 | 1009.7 |
| 20260505014540 | 73 | 241 | 1.7 | 4.3 | 0.00 | 0.00 | 0.00 | 66 | 1009.7 |
| 20260505013033 | 73 | 227 | 2.6 | 6.1 | 0.00 | 0.00 | 0.00 | 67 | 1009.7 |
| 20260505011534 | 74 | 202 | 1.7 | 4.3 | 0.00 | 0.00 | 0.00 | 67 | 1009.6 |
| 20260505010033 | 74 | 219 | 3.5 | 6.1 | 0.00 | 0.00 | 0.00 | 66 | 1009.8 |
| 20260505004532 | 75 | 218 | 2.6 | 6.1 | 0.00 | 0.00 | 0.00 | 63 | 1009.9 |
| 20260505003029 | 75 | 240 | 3.5 | 7.8 | 0.00 | 0.00 | 0.00 | 65 | 1009.9 |
| 20260505001535 | 75 | 236 | 4.3 | 7.0 | 0.00 | 0.00 | 0.00 | 63 | 1009.9 |
| 20260505000038 | 75 | 162 | 3.5 | 7.8 | 0.00 | 0.00 | 0.00 | 64 | 1010.1 |
| 20260504234528 | 75 | 170 | 2.6 | 6.1 | 0.00 | 0.00 | 0.00 | 66 | 1010.1 |
| 20260504233028 | 75 | 176 | 1.7 | 6.1 | 0.00 | 0.00 | 0.00 | 66 | 1010.2 |
| 20260504231530 | 74 | 165 | 2.6 | 5.2 | 0.00 | 0.00 | 0.00 | 65 | 1010.3 |
| 20260504230023 | 74 | 59 | 1.7 | 6.1 | 0.00 | 0.00 | 0.00 | 64 | 1010.4 |
| 20260504224525 | 73 | 207 | 2.6 | 7.0 | 0.00 | 0.00 | 0.00 | 67 | 1010.7 |
| 20260504223019 | 72 | 154 | 3.5 | 6.1 | 0.00 | 0.00 | 0.00 | 64 | 1010.8 |
| 20260504221515 | 71 | 146 | 1.7 | 7.0 | 0.00 | 0.00 | 0.00 | 68 | 1011.0 |
| 20260504220018 | 71 | 155 | 2.6 | 7.0 | 0.00 | 0.00 | 0.00 | 68 | 1011.3 |
| 20260504214511 | 70 | 159 | 1.7 | 6.1 | 0.00 | 0.00 | 0.00 | 71 | 1011.3 |
| 20260504213012 | 69 | 156 | 2.6 | 7.0 | 0.00 | 0.00 | 0.00 | 71 | 1011.5 |
| 20260504211512 | 69 | 195 | 3.5 | 7.8 | 0.00 | 0.00 | 0.00 | 72 | 1011.7 |
| 20260504210007 | 68 | 188 | 2.6 | 6.1 | 0.00 | 0.00 | 0.00 | 71 | 1012.0 |
| 20260504204504 | 68 | 222 | 1.7 | 6.1 | 0.00 | 0.00 | 0.00 | 72 | 1012.2 |
| 20260504203007 | 67 | 62 | 2.6 | 6.1 | 0.00 | 0.00 | 0.00 | 72 | 1012.3 |
| 20260504201501 | 67 | 132 | 1.7 | 6.1 | 0.00 | 0.00 | 0.00 | 72 | 1012.5 |
| 20260504194608 | 65 | 190 | 1.7 | 6.1 | 0.00 | 0.00 | 0.00 | 75 | 1012.6 |
| 20260504193055 | 65 | 166 | 3.5 | 6.1 | 0.00 | 0.00 | 0.00 | 73 | 1012.8 |
| 20260504191552 | 64 | 294 | 2.6 | 7.0 | 0.00 | 0.00 | 0.00 | 74 | 1012.9 |
| 20260504190114 | 63 | 138 | 2.6 | 6.1 | 0.00 | 0.00 | 0.00 | 76 | 1013.0 |
| 20260504184556 | 63 | 151 | 4.3 | 7.8 | 0.00 | 0.00 | 0.00 | 76 | 1013.1 |
| 20260504183050 | 63 | 171 | 3.5 | 7.8 | 0.00 | 0.00 | 0.00 | 77 | 1013.0 |
| 20260504181553 | 63 | 124 | 4.3 | 7.0 | 0.00 | 0.00 | 0.00 | 76 | 1012.9 |
| 20260504180135 | 62 | 130 | 2.6 | 6.1 | 0.00 | 0.00 | 0.00 | 79 | 1013.0 |
| 20260504174550 | 61 | 217 | 3.5 | 6.1 | 0.00 | 0.00 | 0.00 | 79 | 1013.2 |
| 20260504173058 | 60 | 140 | 0.9 | 4.3 | 0.00 | 0.00 | 0.00 | 78 | 1013.1 |
| 20260504171546 | 60 | 86 | 2.6 | 5.2 | 0.00 | 0.00 | 0.00 | 78 | 1013.0 |